Flag for Norway Weather past 2 weeks in Larvik, Norway

Now
66 °F

Passing clouds.


Feels Like: 66 °F
Forecast: 48 / 65 °F
Wind: 5 mph from Northeast

Location: Torp

Current Time: Aug 28, 2014 at 3:34:48 PM

Latest Report: Aug 28, 2014 at 2:50 PM


Visibility: N/A

Pressure: 29.98 "Hg

Humidity: 49%

Dew point: 46 °F

Location of LarvikLocation

Historic Weather in Larvik — Graph

°F

Larvik temperature yesterday

Maximum temperature yesterday: 66 °F (at 1:20 PM)
Minimum temperature yesterday: 50 °F (at 4:20 AM)
Average temperature yesterday: 58 °F

Past Weeks' High & Low Weather Summary

 TemperatureHumidityPressure
High70 °F (Aug 15, 3:50 PM)100% (Aug 13, 8:50 PM)29.98 "Hg (Aug 13, 8:50 PM)
Low45 °F (Aug 18, 6:50 AM)40% (Aug 27, 1:50 PM)29.18 "Hg (Aug 18, 8:50 AM)
Average56 °F80%29.58 "Hg
* Reported Aug 13 2:20 PM — Aug 28 2:20 PM, Larvik, Weather by CustomWeather, © 2014

Note: Actual official high and low records may vary slightly from our data, if they occured in-between our weather recording intervals... More about our weather records

Advertising

Larvik weather history for previous 24 hours

 ConditionsComfort  
Time TempWeatherWind HumidityBarometerVisibility
2:20 PM
Aug 28
66 °FSunny.2 mph49%29.98 "Hg10 mi
1:50 PM66 °FSunny.3 mph46%29.98 "Hg10 mi
1:20 PM64 °FPassing clouds.5 mph49%29.98 "HgN/A
12:50 PM64 °FPassing clouds.3 mph49%29.98 "HgN/A
12:20 PM63 °FPassing clouds.7 mph52%29.98 "HgN/A
11:50 AM63 °FPassing clouds.6 mph52%29.98 "HgN/A
11:20 AM63 °FPassing clouds.8 mph56%29.98 "HgN/A
10:50 AM61 °FPassing clouds.7 mph55%29.98 "HgN/A
10:20 AM61 °FPassing clouds.8 mph59%29.98 "HgN/A
9:50 AM59 °FPassing clouds.8 mph63%29.98 "HgN/A
9:20 AM59 °FSunny.7 mph68%29.98 "Hg10 mi
8:50 AM57 °FSunny.8 mph67%29.98 "Hg10 mi
8:20 AM57 °FPassing clouds.5 mph67%29.98 "HgN/A
7:50 AM55 °FSunny.3 mph77%29.98 "Hg10 mi
7:20 AM54 °FSunny.5 mph77%29.98 "Hg10 mi
6:50 AM54 °FClear.6 mph77%29.98 "Hg10 mi
6:20 AM55 °FClear.6 mph72%29.98 "Hg10 mi
5:50 AM55 °FClear.7 mph72%29.95 "Hg10 mi
5:20 AM54 °FOvercast.5 mph82%29.95 "HgN/A
4:50 AM54 °FOvercast.5 mph82%29.95 "HgN/A
4:20 AM55 °FOvercast.3 mph77%29.95 "HgN/A
3:50 AM55 °FOvercast.6 mph77%29.95 "HgN/A
3:20 AM54 °FOvercast.6 mph88%29.95 "HgN/A
2:50 AM55 °FOvercast.5 mph82%29.95 "HgN/A
2:20 AM54 °FOvercast.3 mph88%29.95 "HgN/A
1:50 AM54 °FOvercast.5 mph82%29.95 "HgN/A
1:20 AM52 °FOvercast.5 mph94%29.95 "HgN/A
12:50 AM54 °FOvercast.3 mph82%29.95 "HgN/A
12:20 AM54 °FOvercast.No wind88%29.95 "HgN/A
11:50 PM
Aug 27
54 °FClear.3 mph88%29.95 "Hg10 mi
11:20 PM55 °FClear.2 mph82%29.95 "Hg10 mi
10:50 PM55 °FClear.2 mph77%29.95 "Hg10 mi
10:20 PM57 °FClear.1 mph77%29.92 "Hg10 mi
9:50 PM57 °FClear.2 mph77%29.92 "Hg10 mi
9:20 PM57 °FSunny.6 mph72%29.92 "Hg10 mi
8:50 PM59 °FSunny.6 mph68%29.92 "Hg10 mi
7:50 PM63 °FSunny.8 mph56%29.92 "Hg10 mi
7:20 PM64 °FSunny.8 mph49%29.92 "Hg10 mi
6:50 PM64 °FSunny.7 mph52%29.92 "Hg10 mi
6:20 PM66 °FSunny.12 mph49%29.92 "Hg10 mi
5:50 PM66 °FSunny.10 mph52%29.92 "Hg10 mi
4:20 PM66 °FSunny.3 mph43%29.92 "Hg10 mi
3:50 PM64 °FSunny.2 mph43%29.92 "Hg10 mi
3:20 PM66 °FPassing clouds.5 mph43%29.92 "HgN/A
Weather by CustomWeather, © 2014

See weather overviewHow to use our weather pages